Ord, NE

9:31 AM CDT on April 23, 2017 (GMT -0500)
Sharp

Weather History for KODX - April, 2013

Change the Weather History Date:

Tuesday, April 16, 2013

  Actual Average Record
Temperature  
Mean Temperature 40 °F 49 °F  
Max Temperature 47 °F 62 °F 84 °F (2002)
Min Temperature 33 °F 36 °F 26 °F (1997)
Degree Days  
Heating Degree Days 25 16  
Month to date heating degree days 383 296  
Since 1 July heating degree days 6324 6159  
Cooling Degree Days 0 0  
Month to date cooling degree days 0 0  
Year to date cooling degree days 0 0  
Moisture  
Dew Point 27 °F    
Average Humidity 60    
Maximum Humidity 82    
Minimum Humidity 38    
Precipitation  
Precipitation 0.00 in 0.10 in 1.72 in (2016)
Month to date precipitation 2.04 1.17  
Year to date precipitation 4.27 3.43  
Sea Level Pressure  
Sea Level Pressure 30.19 in    
Wind  
Wind Speed 10 mph (NE)    
Max Wind Speed 21 mph    
Max Gust Speed 26 mph    
Visibility 10 miles    
Events      
T = Trace of Precipitation, MM = Missing Value Source: NWS Daily Summary

Daily Weather History Graph

Daily Weather History Graph

Search for Another Location

Airport or City:

Trip Planner

Search our weather history database for the weather conditions in past years. The results will help you decide how hot, cold, wet, or windy it might be!

Date:

Astronomy

Apr. 16, 2013 Rise Set
Actual Time 6:53 AM CDT 8:17 PM CDT
Civil Twilight 6:24 AM CDT 8:46 PM CDT
Nautical Twilight 5:50 AM CDT 9:21 PM CDT
Astronomical Twilight 5:13 AM CDT 9:58 PM CDT
Moon 11:11 AM CDT (4/16) 1:18 AM CDT (4/16)
Length of Visible Light 14h 21m
Length of Day
13h 23m
Waxing Crescent, 33% of the Moon is Illuminated
Apr 16
Waxing Crescent
Apr 18
First Quarter
Apr 25
Full
May 2
Last Quarter
May 9
New

Hourly Weather History & Observations

Time (CDT) Temp. Windchill Dew Point Humidity Pressure Visibility Wind Dir Wind Speed Gust Speed Precip Events Conditions
12:53 AM 35.1 °F 32.2 °F 26.1 °F 70% 30.15 in 10.0 mi North 3.5 mph - N/A   Overcast
1:53 AM 35.1 °F 30.1 °F 27.0 °F 72% 30.17 in 10.0 mi NNW 5.8 mph - N/A   Overcast
2:53 AM 35.1 °F 31.0 °F 27.0 °F 72% 30.16 in 10.0 mi NNW 4.6 mph - N/A   Overcast
3:53 AM 34.0 °F 29.8 °F 27.0 °F 75% 30.15 in 10.0 mi NNW 4.6 mph - N/A   Overcast
4:53 AM 34.0 °F 29.8 °F 28.0 °F 79% 30.17 in 10.0 mi NNW 4.6 mph - N/A   Overcast
5:53 AM 34.0 °F 31.0 °F 28.0 °F 79% 30.18 in 10.0 mi NNW 3.5 mph - N/A   Overcast
6:53 AM 34.0 °F 28.8 °F 27.0 °F 75% 30.19 in 10.0 mi NNE 5.8 mph - N/A   Overcast
7:53 AM 34.0 °F 29.8 °F 28.0 °F 79% 30.22 in 10.0 mi NE 4.6 mph - N/A   Overcast
8:53 AM 34.0 °F 26.6 °F 28.0 °F 79% 30.24 in 10.0 mi NE 9.2 mph - N/A   Overcast
9:53 AM 35.1 °F 28.6 °F 28.0 °F 76% 30.25 in 10.0 mi ENE 8.1 mph - N/A   Overcast
10:53 AM 37.0 °F 29.3 °F 27.0 °F 67% 30.25 in 10.0 mi ENE 11.5 mph - N/A   Overcast
11:53 AM 39.0 °F 32.3 °F 26.1 °F 60% 30.26 in 10.0 mi East 10.4 mph - N/A   Overcast
12:53 PM 44.1 °F 37.7 °F 26.1 °F 49% 30.23 in 10.0 mi ENE 12.7 mph 17.3 mph N/A   Mostly Cloudy
1:53 PM 43.0 °F 37.2 °F 23.0 °F 45% 30.22 in 10.0 mi ENE 10.4 mph 19.6 mph N/A   Overcast
2:53 PM 46.0 °F 39.3 °F 24.1 °F 42% 30.18 in 10.0 mi ENE 16.1 mph 20.7 mph N/A   Overcast
3:53 PM 46.0 °F 39.6 °F 23.0 °F 40% 30.16 in 10.0 mi East 15.0 mph 21.9 mph N/A   Overcast
4:53 PM 46.0 °F 39.0 °F 26.1 °F 46% 30.15 in 10.0 mi ENE 17.3 mph 25.3 mph N/A   Overcast
5:53 PM 45.0 °F 37.9 °F 26.1 °F 48% 30.14 in 10.0 mi East 16.1 mph 23.0 mph N/A   Overcast
6:53 PM 44.1 °F 37.7 °F 27.0 °F 51% 30.14 in 10.0 mi ENE 12.7 mph - N/A   Overcast
7:53 PM 43.0 °F 36.8 °F 27.0 °F 53% 30.15 in 10.0 mi ENE 11.5 mph - N/A   Overcast
8:53 PM 43.0 °F 36.8 °F 27.0 °F 53% 30.16 in 10.0 mi ENE 11.5 mph - N/A   Overcast
9:53 PM 42.1 °F 36.1 °F 28.0 °F 58% 30.18 in 10.0 mi NE 10.4 mph - N/A   Overcast
10:53 PM 41.0 °F 34.7 °F 28.9 °F 62% 30.19 in 10.0 mi NE 10.4 mph - N/A   Overcast
11:53 PM 37.9 °F 29.2 °F 28.9 °F 70% 30.19 in 10.0 mi NNE 15.0 mph - N/A   Overcast